Regional Weather Roundup
Issued by NWS

Home | Current Version | Previous Version | Graphics & Text | Print | Product List | Glossary On
Versions: 1 2 3 4 5 6 7 8 9 10 11 12 13 14 15 16 17 18 19 20 21 22 23 24 25 26 27 28 29 30 31 32 33 34 35 36 37 38 39 40 41 42 43 44 45 46 47 48 49 50
000
ASUS45 KCYS 250810
RWRWY

WYOMING REGIONAL WEATHER ROUNDUP
NATIONAL WEATHER SERVICE CHEYENNE WY
100 AM MST SUN JAN 25 2015

NOTE:  "FAIR" INDICATES FEW OR NO CLOUDS BELOW 12,000 FEET
WITH NO SIGNIFICANT WEATHER AND/OR OBSTRUCTIONS TO VISIBILITY.

WYZ001-250900-
YELLOWSTONE NATIONAL PARK

CITY           SKY/WX    TMP DP  RH WIND       PRES   REMARKS
LK YELLOWSTONE   N/A     23  20  88 CALM      30.35F
W YELLOWSTONE  NOT AVBL

$$
WYZ002>013-054>058-071-098>099-250900-
NORTHERN WYOMING

CITY           SKY/WX    TMP DP  RH WIND       PRES   REMARKS
JACKSON        CLOUDY    25  25 100 N5        30.36F WCI  19
CODY           FAIR      46  25  42 NW7       30.15S
GREYBULL       FAIR      16  15  96 CALM      30.18F FOG
WORLAND        FAIR      20  17  88 CALM      30.17S
SHERIDAN       FAIR      31  26  82 W6        30.10F WCI  25
BUFFALO        FAIR      32  27  81 CALM      30.11F
GILLETTE       FAIR      30  25  81 W8        30.09S WCI  22
HULETT           N/A    N/A N/A N/A MISG        N/A
NEWCASTLE      FAIR      32  23  69 N14       30.07R WCI  22

$$
WYZ014>020-022>026-101>103-250900-
CENTRAL WYOMING

CITY           SKY/WX    TMP DP  RH WIND       PRES   REMARKS
BIG PINEY      FAIR      24  20  84 N5        30.32S WCI  18
PINEDALE       CLOUDY    32  28  86 NW16      30.31S WCI  21
DUBOIS         CLOUDY    34  27  75 NW10G17   30.25S WCI  26
LANDER         FAIR      33  21  61 CALM      30.18R
RIVERTON       FAIR      34  23  64 NW10      30.18S WCI  26
CASPER         FAIR      29  25  85 SW14      30.15F WCI  18
DOUGLAS        FAIR      31  26  82 NW8       30.13F WCI  23

$$
WYZ021-027>030-104>119-250900-
SOUTHERN WYOMING

CITY           SKY/WX    TMP DP  RH WIND       PRES   REMARKS
EVANSTON       FAIR      27  24  89 SW10      30.40F WCI  17
KEMMERER       CLOUDY    30  30 100 CALM      30.39R
FORT BRIDGER   FAIR      32  30  94 W17       30.39F WCI  21
ROCK SPRINGS   FAIR      33  27  78 W28G33    30.31S WCI  20
DIXON          FAIR      29  23  76 W7        30.34F WCI  22
RAWLINS        FAIR      27  24  89 W7        30.24S WCI  19
SARATOGA       FAIR      32  28  86 W21       30.27R WCI  20
LARAMIE        MOCLDY    27  21  78 W9        30.14F WCI  18
CHEYENNE       FAIR      36  25  64 NW14G23   30.10F WCI  27
TORRINGTON     CLOUDY    39  24  55 NW13      30.10S WCI  31
PINE BLUFFS    CLOUDY    34  28  80 NW12      30.13S WCI  25

$$


USA.gov is the U.S. government's official web portal to all federal, state and local government web resources and services.